User: anonymous   Login
Location: Peebles
(55.6412°N, 3.1714°W)
Time: 09:30:14
(UTC+01:00)
Language:

FENGYUN 1C DEB - Orbit

View from above orbital plane
View from above orbital plane
View from above satellite
View from above satellite

Ground track
Ground track

The orbit data is extracted from the following two-line orbital elements,

1 29982U 99025LG  22176.92771924  .00001173  00000-0  24408-3 0  9997
2 29982  99.4122 175.6125 0145434 141.6016 286.1620 14.55966404818158
Epoch (UTC): 25 June 2022 22:15:54
Eccentricity: 0.0145434
inclination: 99.4122°
perigee height: 603 km
apogee height: 809 km
right ascension of ascending node: 175.6125°
argument of perigee: 141.6016°
revolutions per day: 14.55966404
mean anomaly at epoch: 286.1620°
orbit number at epoch: 81815

The dashed part of the orbit path shows where the satellite is in the earth's shadow,  

DLR